Snowfall_Accumulation
0.0 0.0 0.0 0.0 0.0 0.0 0.0 0.0 4.2 0.0 0.0 0.6 4.0 4.5 0.2 0.0 0.0 0.0 0.3 0.0 0.0 0.3 0.3 4.1 5.7 8.0 6.2 0.2 0.0 1.1 0.6 2.4 5.9 2.3 0.0 0.0 1.6 2.1 1.4 14.2 9.2 9.5 10.0 20.2
0.0 0.0 0.0 0.0 0.0 0.0 0.0 0.0 1.6 0.0 0.0 11.3 3.5 0.0 0.1 0.0 1.2 0.4 0.0 0.2 0.0 0.0 0.3 1.8 1.1 1.5 0.9 0.0 0.3 0.3 0.5 0.7 4.8 4.5 0.2 0.0 1.2 1.1 0.5 1.0 4.5 11.1 20.3 25.2
0.0 0.0 0.0 0.0 0.0 0.0 0.0 0.0 10.2 0.0 0.0 0.0 0.1 0.2 1.3 1.0 0.0 0.0 0.0 0.0 0.0 0.0 0.3 0.0 0.2 0.6 1.0 0.0 0.0 0.0 0.0 0.2 2.0 4.4 2.3 1.3 4.0 1.3 0.7 4.9 13.4 8.3 15.0 11.7
0.0 0.0 0.0 0.0 0.0 0.0 0.0 0.0 2.9 0.0 4.9 0.8 0.1 1.0 1.2 1.9 1.8 0.0 0.0 0.5 0.0 0.4 1.1 0.2 0.3 0.3 1.1 1.3 1.1 1.0 0.8 0.8 0.0 0.7 0.3 0.0 3.1 3.0 2.2 7.2 2.7 10.8 6.8 6.3
0.0 0.0 0.0 0.0 0.0 0.0 0.0 0.9 1.0 0.0 0.0 0.0 0.0 0.0 1.2 1.8 0.0 0.0 0.0 0.0 0.0 0.0 0.7 0.1 0.3 0.5 0.6 1.3 1.3 2.9 1.8 1.8 0.0 2.1 0.0 1.3 3.0 0.3 0.9 0.8 0.5 1.3 0.3 2.3
0.0 0.0 0.0 0.0 0.0 0.0 0.0 0.0 0.0 0.0 0.0 0.0 0.0 0.6 0.4 0.0 0.1 0.0 0.0 0.0 0.0 0.0 0.0 0.0 0.0 0.0 0.0 0.3 0.9 0.9 1.2 0.0 0.6 6.4 0.2 1.5 3.0 0.6 0.1 0.1 0.0 0.1 0.6 0.3
0.0 0.0 0.0 0.0 0.0 0.0 0.0 0.0 0.0 0.3 0.3 0.0 0.2 0.3 0.0 0.0 0.0 0.1 0.0 0.0 0.0 0.0 0.0 0.0 0.0 0.0 0.0 0.0 0.0 0.0 0.0 0.2 0.1 4.0 1.1 5.9 0.3 0.0 0.0 0.0 0.4 0.0 0.0 0.0
0.0 0.0 0.0 0.0 0.0 0.0 0.0 0.0 0.0 0.0 0.2 0.0 0.0 0.1 0.1 0.0 0.0 0.1 0.0 0.0 0.0 0.0 0.0 0.0 0.2 0.3 0.2 0.0 0.0 0.1 0.0 0.0 0.9 3.4 4.3 0.2 0.0 0.0 0.0 0.0 0.1 0.0 0.0 0.0
0.0 0.0 0.0 0.0 0.0 0.0 0.0 0.0 0.0 0.0 0.1 0.0 0.0 0.0 0.0 0.2 0.1 0.1 0.0 0.0 0.0 0.0 0.0 0.8 1.6 1.5 0.0 0.2 0.0 0.0 0.0 0.0 0.9 1.0 2.5 0.9 0.0 0.0 0.0 0.0 0.0 0.0 0.0 0.0
0.0 0.0 0.0 0.0 0.0 0.0 0.0 0.0 0.0 0.0 0.3 0.0 0.0 0.0 0.1 0.0 0.1 0.2 0.0 0.0 0.0 0.0 0.6 0.9 0.1 0.1 0.0 0.1 0.1 0.1 0.4 0.6 1.4 0.8 2.1 0.0 0.0 0.0 0.0 0.1 0.0 0.0 0.0 0.0
0.0 0.0 0.0 0.0 0.0 0.0 0.0 0.0 0.0 0.0 0.1 0.0 0.0 0.0 0.0 0.0 0.1 0.3 0.1 0.0 0.0 0.0 1.4 0.6 0.0 0.0 0.0 0.0 0.0 0.0 0.0 0.2 0.3 0.6 0.8 0.2 0.0 0.0 0.0 0.0 0.0 0.0 0.0 0.0
0.0 0.0 0.0 0.0 0.0 0.0 0.0 0.0 0.0 0.0 0.0 0.0 0.0 0.0 0.0 0.0 0.0 0.0 0.0 0.1 0.8 0.5 0.4 0.0 0.0 0.0 0.0 0.0 0.2 0.0 0.1 0.0 0.0 0.0 0.0 0.0 0.0 0.0 0.0 0.0 0.0 0.0 0.0 0.1
0.0 0.0 0.0 0.0 0.0 0.0 0.0 0.0 0.0 0.0 0.0 0.0 0.0 0.0 0.0 0.0 0.0 0.0 0.0 0.0 0.0 0.6 0.2 0.3 0.3 0.9 0.0 0.1 0.0 0.0 0.0 0.0 0.1 0.0 0.0 0.0 0.1 0.4 0.3 0.3 0.2 0.1 0.0 0.0
0.0 0.0 0.0 0.0 0.0 0.0 0.0 0.0 0.0 0.0 0.0 0.9 0.0 0.0 0.0 0.0 0.0 0.0 0.0 0.0 0.0 0.0 0.0 0.5 2.0 1.6 0.0 0.2 0.0 0.0 0.0 0.0 0.1 0.4 0.3 0.4 0.6 0.1 0.0 0.0 0.0 0.0 0.0 0.0
0.0 0.0 0.0 0.0 0.0 0.0 0.0 0.0 0.0 0.0 0.0 2.5 0.1 0.0 0.0 0.0 0.0 0.0 0.0 0.0 0.0 0.1 0.8 2.0 2.2 0.3 0.5 0.5 0.3 0.2 0.0 0.1 0.4 0.5 0.2 0.5 1.2 0.3 0.1 0.0 0.0 0.0 0.0 0.0
0.0 0.0 0.0 0.0 0.0 0.0 0.0 0.1 0.0 0.0 0.0 2.0 2.5 0.0 0.0 0.0 0.0 0.0 0.0 0.0 0.0 0.0 1.4 1.7 0.6 0.0 0.3 4.7 1.0 0.2 0.0 0.1 0.3 0.9 0.4 0.9 1.0 0.0 0.0 0.0 0.0 0.0 0.0 0.2
0.0 0.0 0.0 0.0 0.0 0.0 0.4 0.2 0.0 0.0 0.0 1.4 3.2 0.3 0.0 0.0 0.0 0.0 0.0 0.0 0.0 0.0 0.9 1.4 0.3 0.2 0.3 6.0 4.2 0.8 0.5 0.2 0.2 0.2 0.1 0.0 0.2 0.6 0.5 1.1 1.7 1.5 1.5 0.9
0.0 0.0 0.0 0.0 0.0 0.0 0.0 0.0 0.0 0.0 0.0 1.8 8.7 1.5 0.1 0.0 0.4 0.3 0.0 0.0 0.0 0.1 0.5 0.7 1.0 0.9 1.5 11.8 2.5 1.2 0.9 0.6 0.0 0.1 0.6 1.6 1.5 1.6 1.6 0.6 0.8 0.9 0.3 0.0
0.0 0.0 0.0 0.0 0.0 0.0 0.0 0.0 0.0 0.0 0.0 11.3 8.6 2.6 2.5 0.0 0.0 0.0 0.0 0.0 1.6 0.0 0.8 0.2 0.2 1.3 6.5 4.1 2.1 1.5 0.9 0.7 1.9 2.2 1.8 0.7 1.1 0.7 0.2 1.1 0.8 0.3 0.0 0.0
0.0 0.0 0.0 3.5 0.0 0.0 0.0 0.0 1.9 4.8 2.5 4.5 8.7 0.4 2.4 0.0 0.7 0.5 2.0 2.8 4.3 8.6 0.8 0.0 5.2 5.7 5.0 3.6 1.7 1.3 1.2 2.3 1.5 1.9 0.8 0.4 0.1 0.1 0.0 0.0 0.0 0.0 0.0 0.0
0.0 3.3 3.4 0.0 0.0 0.0 0.7 10.0 13.0 7.6 13.3 6.0 3.6 1.2 2.7 0.5 4.6 6.1 3.4 12.0 7.9 10.5 2.6 3.8 6.6 7.6 4.8 1.1 0.9 1.3 1.4 0.9 0.4 0.2 0.0 0.0 0.0 0.0 0.0 0.0 0.0 0.0 0.0 0.0
0.0 0.0 0.0 0.0 5.0 12.2 15.3 12.0 6.6 11.3 7.9 4.1 4.2 1.7 1.1 0.8 0.0 6.3 7.2 13.0 12.8 10.6 1.2 9.1 8.1 4.8 1.5 1.2 0.1 0.2 0.1 0.0 0.0 0.0 0.0 0.0 0.0 0.0 0.0 0.0 0.0 0.0 0.0 0.0
0.0 4.3 23.8 18.8 17.3 22.4 15.5 7.1 9.2 8.5 2.8 3.6 3.3 3.8 1.4 1.4 2.2 10.4 13.8 19.9 12.5 1.8 7.7 7.2 5.1 1.1 0.6 0.4 0.4 0.2 0.0 0.0 0.0 0.0 0.0 0.0 0.0 0.0 0.0 0.0 0.0 0.0 0.0 0.0
10.3 47.9 51.0 22.3 15.2 2.6 5.3 3.5 3.3 2.3 4.0 3.6 3.2 5.0 6.6 5.0 13.0 10.8 18.3 5.3 11.2 13.7 7.5 5.5 2.7 1.4 0.7 0.5 0.4 0.4 0.6 1.4 1.4 0.8 0.4 0.4 0.3 0.2 0.1 0.1 0.1 0.0 0.1 0.0
49.7 37.5 26.3 7.0 0.2 0.6 2.5 1.3 0.9 1.5 1.9 2.5 4.2 6.2 6.2 9.1 14.0 10.1 7.2 13.4 6.8 4.2 3.2 3.0 1.1 0.8 0.4 0.9 1.3 1.2 1.4 2.6 3.6 3.9 3.6 3.4 2.8 2.0 1.6 0.8 0.5 0.4 0.1 0.1
44.7 31.5 9.7 0.9 0.3 0.2 0.5 1.5 1.6 1.3 3.0 2.3 4.8 10.0 14.3 10.5 10.7 12.9 6.8 7.7 5.1 3.1 2.8 2.8 2.1 2.3 2.0 1.7 1.2 0.9 0.5 0.5 0.5 0.3 0.3 0.7 0.4 0.9 1.6 1.0 1.1 1.3 1.2 1.2
49.3 15.8 0.5 0.1 0.2 0.6 0.6 0.7 1.1 0.9 2.9 6.2 8.9 18.9 11.7 9.1 14.9 9.6 5.8 7.6 4.5 1.9 0.7 1.4 1.8 2.5 2.9 3.1 2.5 2.0 1.0 1.2 0.7 0.5 0.4 0.4 0.4 0.1 0.7 0.4 0.1 0.2 1.4 1.8